Regional Weather Roundup
Issued by NWS Newport/Morehead, NC

Current Version | Previous Version | Graphics & Text | Print | Product List | Glossary Off
Versions: 1 2 3 4 5 6 7 8 9 10 11 12 13 14 15 16 17 18 19 20 21 22 23 24 25 26 27 28 29 30 31 32 33 34 35 36 37 38 39 40 41 42 43 44 45 46 47 48 49 50

000
ASUS42 KMHX 210313
RWRMHX
WEATHER ROUNDUP FOR EASTERN NORTH CAROLINA
NATIONAL WEATHER SERVICE NEWPORT/MOREHEAD CITY NC
1000 PM EST TUE FEB 20 2018

NOTE: "FAIR" INDICATES FEW OR NO CLOUDS BELOW 12,000 FEET
WITH NO SIGNIFICANT WEATHER AND/OR OBSTRUCTIONS TO VISIBILITY

NCZ015>017-031-032-045>047-102-103-210400-
NORTH COAST

CITY           SKY/WX    TMP DP  RH WIND       PRES   REMARKS
EDENTON        FAIR      66  64  93 S7        30.47R
ELIZABETH CITY FAIR      66  65  96 S10       30.46R
KITTY HAWK     FAIR     N/A N/A N/A S5        30.47R
MANTEO         FAIR      59  59  99 S6        30.49R FOG

$$

NCZ045>047-081-094-103-104-210400-
CENTRAL COAST

CITY           SKY/WX    TMP DP  RH WIND       PRES   REMARKS
FRISCO         CLOUDY    64  63  96 S7        30.49R

$$

NCZ095-097-098-100-101-210400-
SOUTHERN COAST

CITY           SKY/WX    TMP DP  RH WIND       PRES   REMARKS
BEAUFORT       MOCLDY    67  64  90 S9        30.48R
CEDAR ISLAND   NOT AVBL
JACKSONVILLE   CLOUDY    68  66  93 S5        30.47R
PINEY ISLAND   NOT AVBL
WILMINGTON     FAIR      65  64  97 S3        30.47R


$$

NCZ011>013-027>030-043-044-078>080-089-090>093-098-210400-
COASTAL PLAIN

CITY           SKY/WX    TMP DP  RH WIND       PRES   REMARKS
AHOSKIE        FAIR      65  64  97 S5        30.45R
CLINTON        FAIR      65  64  96 S3        30.46S
ELIZABETHTOWN  NOT AVBL
GOLDSBORO      FAIR      68  65  90 S5        30.44R
GREENVILLE     FAIR      68  64  88 S8        30.46R
HAVELOCK       MOCLDY    71  67  87 S8        30.48S
KENANSVILLE    FAIR      66  64  94 S3        30.46S FOG
KINSTON        FAIR      67  65  92 S7        30.47R
NEW BERN       CLOUDY    67  66  97 S6        30.48R
RICHLANDS      FAIR      65  64  97 S3        30.48R FOG
ROCKY MOUNT    FAIR      66  62  87 S6        30.45R
WASHINGTON     FAIR      66  64  95 S3        30.47S
WHITEVILLE     FAIR      65  64  94 CALM      30.46R

$$

AMZ130-135-150-152-154-156-158-170-250-252-270-ANZ085-086-088-633-658-670-210400-
MARINE OBSERVATIONS

STATION/POSITION TIME  TEMP    WIND        PRES    WAVE   SWELL
                       AIR SEA DIR/SP/G            HT/PER HT/PER
                 (UTC) (F)     (DEG/KT/KT) (MB)    (FT/S) (FT/S)
CHESAPEAKE LIGHT NOT AVBL
64 E VA BEACH    0250   58 53  190/ 14/ 16 1032.2    4/11   3/11
DUCK             0242   65 45  180/ 12/ 14 1031.2
2 E DUCK         0230      45                N/A     3/13   2/13
OREGON INLET     0242   60 57  170/  8/ 10 1032.2
13E OREGON INLT  0248      47                N/A     4/12   3/12
HATTERAS CG      0242   65 58  180/  5/  8 1032.2
DIAMOND BUOY     0300   72 72  180/ 14/ 16 1032.8
CAPE LOOKOUT     NOT AVBL
BEAUFORT LAB     0242   64 57  170/  7/ 10 1032.2
30 SE NEW RVR IN 0208   71 69  180/ 12/ 16 1031.6
30 SE NEW RVR IN 0230      69                N/A     4/ 5   2/12
27 SE WRIGHTSVLE 0208   70 69  180/ 12/ 16 1031.7
5 SE WRIGHTSVLE  0208   61 57  180/  6/  8 1031.2
225 S CAPE HAT   0250   72 74  110/ 14/ 16 1032.7    5/ 6   3/ 8
41 SE CHARLESTON 0300   71 69  140/  8/ 10 1030.7

$$




USA.gov is the U.S. government's official web portal to all federal, state and local government web resources and services.